Yatton Keynell, United Kingdom

12:17 PM BST on April 20, 2019 (GMT +0100)
Yatton Keynell

Weather History for 03740 - July, 1996

Change the Weather History Date:

Tuesday, July 30, 1996

  Actual Average Record
Temperature  
Mean Temperature 62 °F -  
Max Temperature 68 °F 68 °F - ()
Min Temperature 57 °F 53 °F - ()
Degree Days  
Heating Degree Days 2    
Growing Degree Days 12 (Base 50)    
Moisture  
Dew Point 56 °F    
Average Humidity 84    
Maximum Humidity 94    
Minimum Humidity 56    
Precipitation  
Precipitation 0.00 in 0.08 in - ()
Sea Level Pressure  
Sea Level Pressure 29.99 in    
Wind  
Wind Speed 7 mph ()    
Max Wind Speed 15 mph    
Max Gust Speed -    
Visibility 5.3 miles    
Events Rain    
T = Trace of Precipitation, MM = Missing Value Source: Averaged Metar Reports

Daily Weather History Graph

Daily Weather History Graph

Search for Another Location

Airport or City:

Astronomy

Jul. 30, 1996 Rise Set
Actual Time 5:28 AM BST 8:58 PM BST
Civil Twilight 4:47 AM BST 9:39 PM BST
Nautical Twilight 3:52 AM BST 10:34 PM BST
Astronomical Twilight 2:31 AM BST 11:52 PM BST
Moon 8:38 PM BST (7/30) 5:35 AM BST (7/30)
Length of Visible Light 16h 51m
Length of Day
15h 29m
Full, 100% of the Moon is Illuminated
Jul 30
Full
Aug 6
Last Quarter
Aug 14
New
Aug 22
First Quarter
Aug 28
Full

Hourly Weather History & Observations

Time (BST) Temp. Dew Point Humidity Pressure Visibility Wind Dir Wind Speed Gust Speed Precip Events Conditions
12:00 AM 62.6 °F 57.2 °F 82% 29.95 in - NW 8.1 mph - N/A   Clear
12:50 AM 60.8 °F 57.2 °F 88% 29.98 in - NW 8.1 mph - N/A   Clear
1:00 AM 60.8 °F 57.2 °F 88% 29.98 in - NW 8.1 mph - N/A   Clear
1:50 AM 59.0 °F 55.4 °F 88% 29.98 in 6.2 mi NW 6.9 mph - N/A   Scattered Clouds
2:00 AM 59.0 °F 55.4 °F 88% 29.98 in 6.2 mi NW 6.9 mph - N/A   Scattered Clouds
2:50 AM 57.2 °F 55.4 °F 94% 29.98 in 5.0 mi Calm Calm - N/A   Haze
3:00 AM 57.2 °F 55.4 °F 94% 29.98 in 5.0 mi Calm Calm - N/A   Haze
3:50 AM 57.2 °F 55.4 °F 94% 29.98 in 3.7 mi WSW 3.5 mph - N/A   Haze
4:00 AM 57.2 °F 55.4 °F 94% 29.98 in 3.7 mi WSW 3.5 mph - N/A   Haze
4:50 AM 57.2 °F 55.4 °F 94% 29.98 in 3.7 mi WSW 4.6 mph - N/A   Haze
5:00 AM 57.2 °F 55.4 °F 94% 29.98 in 3.7 mi WSW 4.6 mph - N/A   Haze
5:50 AM 59.0 °F 55.4 °F 88% 29.98 in 3.7 mi West 4.6 mph - N/A   Haze
6:00 AM 59.0 °F 55.4 °F 88% 29.98 in 3.7 mi West 4.6 mph - N/A   Haze
6:50 AM 59.0 °F 55.4 °F 88% 29.98 in 3.7 mi WNW 3.5 mph - N/A   Haze
7:00 AM 59.0 °F 55.4 °F 88% 29.98 in 3.7 mi WNW 3.5 mph - N/A   Haze
7:50 AM 60.8 °F 57.2 °F 88% 30.01 in 3.7 mi Calm Calm - N/A   Haze
8:00 AM 60.8 °F 57.2 °F 88% 30.01 in 3.7 mi Calm Calm - N/A   Haze
8:50 AM 60.8 °F 59.0 °F 94% 30.01 in 3.7 mi Calm Calm - N/A   Haze
9:00 AM 60.8 °F 59.0 °F 94% 30.01 in 3.7 mi Calm Calm - N/A   Haze
9:50 AM 62.6 °F 59.0 °F 88% 30.01 in 4.3 mi SW 5.8 mph - N/A   Haze
10:00 AM 62.6 °F 59.0 °F 88% 30.01 in 4.3 mi SW 5.8 mph - N/A   Haze
10:50 AM 64.4 °F 53.6 °F 68% 30.01 in 6.2 mi West 12.7 mph - N/A   Mostly Cloudy
11:00 AM 64.4 °F 53.6 °F 68% 30.01 in 6.2 mi West 12.7 mph - N/A   Mostly Cloudy
11:50 AM 68.0 °F 55.4 °F 64% 30.01 in 6.2 mi WSW 11.5 mph - N/A   Mostly Cloudy
12:00 PM 68.0 °F 55.4 °F 64% 30.01 in 6.2 mi WSW 11.5 mph - N/A   Mostly Cloudy
12:50 PM 68.0 °F 53.6 °F 60% 30.01 in 6.2 mi WSW 13.8 mph - N/A   Mostly Cloudy
1:00 PM 68.0 °F 53.6 °F 60% 30.01 in 6.2 mi WSW 13.8 mph - N/A   Mostly Cloudy
1:50 PM 68.0 °F 51.8 °F 56% 30.01 in 6.2 mi West 15.0 mph - N/A   Mostly Cloudy
2:00 PM 68.0 °F 51.8 °F 56% 30.01 in 6.2 mi West 15.0 mph - N/A   Mostly Cloudy
2:50 PM 66.2 °F 53.6 °F 64% 29.98 in 6.2 mi WSW 13.8 mph - N/A   Mostly Cloudy
3:00 PM 66.2 °F 53.6 °F 64% 29.98 in 6.2 mi WSW 13.8 mph - N/A   Mostly Cloudy
3:50 PM 64.4 °F 57.2 °F 77% 29.98 in 6.2 mi West 13.8 mph - N/A Rain Light Rain
4:00 PM 64.4 °F 57.2 °F 77% 29.98 in 6.2 mi West 13.8 mph - N/A Rain Light Rain
4:50 PM 60.8 °F 53.6 °F 77% 30.01 in 6.2 mi West 12.7 mph - N/A Rain Light Rain
5:00 PM 60.8 °F 53.6 °F 77% 30.01 in 6.2 mi West 12.7 mph - N/A Rain Light Rain
5:50 PM 59.0 °F 57.2 °F 94% 30.01 in 4.3 mi West 10.4 mph - N/A Rain Rain
6:00 PM 59.0 °F 57.2 °F 94% 30.01 in 4.3 mi West 10.4 mph - N/A Rain Rain
6:50 PM 59.0 °F 57.2 °F 94% 29.98 in 6.2 mi WSW 10.4 mph - N/A Rain Light Rain
7:00 PM 59.0 °F 57.2 °F 94% 29.98 in 6.2 mi WSW 10.4 mph - N/A Rain Light Rain
7:50 PM 59.0 °F 55.4 °F 88% 30.01 in 6.2 mi West 9.2 mph - N/A   Mostly Cloudy
8:00 PM 59.0 °F 55.4 °F 88% 30.01 in 6.2 mi West 9.2 mph - N/A   Mostly Cloudy
8:50 PM 59.0 °F 55.4 °F 88% 29.98 in 6.2 mi SW 9.2 mph - N/A   Mostly Cloudy
9:00 PM 59.0 °F 55.4 °F 88% 29.98 in 6.2 mi SW 9.2 mph - N/A   Mostly Cloudy
9:50 PM 59.0 °F 57.2 °F 94% 30.01 in 6.2 mi SSW 5.8 mph - N/A   Mostly Cloudy
10:00 PM 59.0 °F 57.2 °F 94% 30.01 in 6.2 mi SSW 5.8 mph - N/A   Mostly Cloudy
10:50 PM 57.2 °F 55.4 °F 94% 29.98 in 6.2 mi SW 10.4 mph - N/A   Mostly Cloudy
11:00 PM 57.2 °F 55.4 °F 94% 29.98 in 6.2 mi SW 10.4 mph - N/A   Mostly Cloudy
11:50 PM 57.2 °F 55.4 °F 94% 29.98 in 6.2 mi SSW 8.1 mph - N/A   Overcast